Location: Boiro
(42.6475°N, 8.8834°W)
Time: 12:49:22
(UTC+01:00)

Transit 4A - Pass Details

Date: 03 December 2021
Orbit: 863 x 981 km, 66.8° (Epoch: 26 January)

Event Time Altitude Azimuth Distance (km) Brightness Sun altitude
Exits shadow 07:38:31 16° 281° (W) 2,287 9.3 -12.5°
Maximum altitude 07:40:44 19° 256° (WSW) 2,117 9.3 -12.1°
Drops below altitude 10° 07:45:02 10° 213° (SSW) 2,720 10.2 -11.4°
Sets 07:48:21 0° 196° (SSW) 3,667 11.1 -10.8°
